Content
SEND FEEDBACK

Daily
Averages
Monthly
Summary
United States of America

BLOOMFIELD, IOWA


Home > North America > United States > Iowa
Elevation: 851 feet     Latitude: 40 45N     Longitude: 092 25W

WEATHER
 
SELECT A DAY
Number of Records: 373,683;   Date Range: 1/1/95 - 8/30/14
 
SHARE

PRINT THIS DATA

[ ← Previous Day ]
WEATHER ALMANAC - JANUARY 23, 2013
[ Next Day → ]
[ °C ]   °F
Weather ElementAverageHighLow
Temperature18.6 °F30 °F (1:53 pm)8.1 °F (11:53 pm)
Dewpoint7.5 °F16 °F (12:53 pm)-2.9 °F (11:53 pm)
Humidity62.3 %77 % (7:53 am)53 % (10:53 am)
Barometer30.30 in30.53 in (11:53 pm)30.20 in (12:53 pm)
Wind Speed14.2 mph28.8 mph (7:53 pm)
Wind Gust36.8 mph (7:53 pm)
Weather ElementAverage
Visibility10 mi
Wind DirectionW (268.3 °)

Weather ElementTotal
Precipitation---
Heating Degree Days46 (Base 65)
Averaged from 23 records on January 23, 2013
WEATHER CONDITIONS BREAKOUT
WIND DIRECTION BREAKOUT
WEATHER BY HOUR - JANUARY 23, 2013
[ °C ]   °F
Local TimeTemperatureDewpointHumidityBarometerVisibilityWind DirectionWind SpeedGust SpeedPrecipitationEventsConditions
1:53 AM15.1 °F3.0 °F59 %30.32 in10.0 miSouth (170°)6.9 mphOvercast
2:53 AM15.1 °F3.9 °F61 %30.32 in10.0 miSouth (180°)6.9 mphOvercast
3:53 AM15.1 °F5.0 °F64 %30.30 in10.0 miSouth (190°)8.1 mphOvercast
4:53 AM12.0 °F3.9 °F70 %30.29 in10.0 miSouth (180°)9.2 mphClear
5:53 AM10.9 °F3.9 °F73 %30.28 in10.0 miSouth (180°)9.2 mphClear
6:53 AM10.9 °F3.9 °F73 %30.26 in10.0 miSouth (190°)9.2 mphClear
7:53 AM10.9 °F5.0 °F77 %30.24 in10.0 miSouth (180°)6.9 mphClear
8:53 AM15.1 °F7.0 °F70 %30.24 in10.0 miSSW (200°)9.2 mphClear
9:53 AM19.9 °F9.0 °F62 %30.23 in10.0 miSW (220°)9.2 mphClear
10:53 AM27.0 °F12.0 °F53 %30.23 in10.0 miWest (260°)10.4 mphClear
11:53 AM28.9 °F15.1 °F56 %30.22 in10.0 miNW (310°)17.3 mphClear
12:53 PM28.9 °F16.0 °F58 %30.20 in10.0 miWNW (300°)12.7 mph21.9 mphClear
1:53 PM30.0 °F16.0 °F56 %30.20 in10.0 miNW (310°)16.1 mphClear
2:53 PM30.0 °F16.0 °F56 %30.22 in10.0 miNW (310°)16.1 mph25.3 mphClear
3:53 PM28.0 °F15.1 °F58 %30.25 in10.0 miNW (320°)23.0 mph27.6 mphClear
4:53 PM26.1 °F15.1 °F63 %30.27 in10.0 miNNW (330°)13.8 mph25.3 mphClear
5:53 PM24.1 °F12.9 °F62 %30.31 in10.0 miNW (320°)15.0 mphClear
6:53 PM21.0 °F10.0 °F63 %30.35 in10.0 miNNW (330°)18.4 mph26.5 mphClear
7:53 PM18.0 °F6.1 °F60 %30.38 in10.0 miNNW (330°)28.8 mph36.8 mphClear
8:53 PM12.9 °F-0.9 °F54 %30.42 in10.0 miNNW (330°)24.2 mphClear
9:53 PM10.0 °F-0.9 °F61 %30.46 in10.0 miNNW (340°)21.9 mph28.8 mphClear
10:53 PM9.0 °F-0.9 °F64 %30.48 in10.0 miNNW (340°)17.3 mphClear
11:53 PM8.1 °F-2.9 °F61 %30.53 in10.0 miNorth (350°)16.1 mphClear
Hourly data recorded from KOTM, located miles away from Bloomfield, Iowa







STORIES FROM OUR PARTNERS